RYR70SJ LIPZ-EGSS

Flight info

Callsign RYR70SJ
Flight time 1h 58m
Altitude 38000
Route ROKIB DCT SAFFA DCT ELMUR L613 HOC DCT LUL DCT RLP DCT ROTSI DCT KOTUN DCT NIDUV DCT SOSUN DCT SUBIP UM733 BANVA
Aircraft B738/M-SDE2E3FGHIRWXY/LB1

Departure

Time 2026-05-04 13:47
Airport Venice Marco Polo Airport (LIPZ)

Arrival

Time 2026-05-04 15:45
Airport London Stansted Airport (EGSS)
Time Latitude Longitude Altitude Speed Heading
2026-05-04 13:10 45.50777 12.33959 14 ft 0 kts 222°
2026-05-04 13:36 45.50783 12.33967 16 ft 4 kts 222°
2026-05-04 13:36 45.50803 12.33992 19 ft 4 kts 218°
2026-05-04 13:36 45.50820 12.33999 14 ft 4 kts 141°
2026-05-04 13:36 45.50833 12.33982 15 ft 0 kts 132°
2026-05-04 13:42 45.50783 12.34079 15 ft 12 kts 116°
2026-05-04 13:42 45.50736 12.34188 15 ft 14 kts 135°
2026-05-04 13:42 45.50670 12.34292 15 ft 15 kts 130°
2026-05-04 13:42 45.50576 12.34337 15 ft 15 kts 177°
2026-05-04 13:43 45.50466 12.34344 15 ft 16 kts 177°
2026-05-04 13:43 45.50358 12.34351 15 ft 15 kts 178°
2026-05-04 13:43 45.50261 12.34311 16 ft 16 kts 223°
2026-05-04 13:43 45.50175 12.34202 15 ft 17 kts 221°
2026-05-04 13:44 45.50080 12.34080 14 ft 19 kts 226°
2026-05-04 13:44 45.49981 12.33951 14 ft 19 kts 219°
2026-05-04 13:44 45.49881 12.33826 14 ft 19 kts 221°
2026-05-04 13:44 45.49786 12.33700 15 ft 17 kts 221°
2026-05-04 13:45 45.49685 12.33607 16 ft 17 kts 212°
2026-05-04 13:45 45.49601 12.33517 15 ft 13 kts 208°
2026-05-04 13:45 45.49538 12.33545 15 ft 10 kts 126°
2026-05-04 13:45 45.49496 12.33618 15 ft 9 kts 130°
2026-05-04 13:46 45.49453 12.33688 15 ft 10 kts 129°
2026-05-04 13:46 45.49425 12.33782 14 ft 10 kts 75°
2026-05-04 13:46 45.49490 12.33874 13 ft 19 kts 40°
2026-05-04 13:46 45.49738 12.34192 12 ft 80 kts 42°
2026-05-04 13:47 45.50301 12.34917 13 ft 135 kts 43°
2026-05-04 13:47 45.51105 12.35956 88 ft 171 kts 44°
2026-05-04 13:47 45.51967 12.37092 790 ft 166 kts 47°
2026-05-04 13:47 45.52814 12.38294 1256 ft 180 kts 47°
2026-05-04 13:48 45.53632 12.39637 1871 ft 182 kts 64°
2026-05-04 13:48 45.53746 12.41386 2483 ft 178 kts 108°
2026-05-04 13:48 45.53458 12.43089 3091 ft 181 kts 101°
2026-05-04 13:48 45.53269 12.44897 3580 ft 197 kts 102°
2026-05-04 13:49 45.53028 12.46963 3918 ft 213 kts 101°
2026-05-04 13:49 45.52779 12.49081 4388 ft 219 kts 101°
2026-05-04 13:49 45.52432 12.51207 4916 ft 220 kts 118°
2026-05-04 13:49 45.51421 12.52730 5390 ft 216 kts 157°
2026-05-04 13:50 45.49972 12.53103 5897 ft 214 kts 189°
2026-05-04 13:50 45.48538 12.52567 6451 ft 213 kts 202°
2026-05-04 13:50 45.47214 12.51649 7023 ft 211 kts 222°
2026-05-04 13:50 45.46419 12.49918 7554 ft 215 kts 252°
2026-05-04 13:51 45.46347 12.47699 7728 ft 240 kts 281°
2026-05-04 13:51 45.46834 12.45316 7949 ft 263 kts 285°
2026-05-04 13:51 45.47406 12.42761 8436 ft 275 kts 285°
2026-05-04 13:51 45.47995 12.40147 9164 ft 279 kts 285°
2026-05-04 13:52 45.49188 12.34786 10489 ft 295 kts 285°
2026-05-04 13:52 45.49823 12.31881 10661 ft 319 kts 285°
2026-05-04 13:52 45.50498 12.28783 11088 ft 333 kts 285°
2026-05-04 13:53 45.51189 12.25605 11758 ft 338 kts 285°
2026-05-04 13:53 45.51886 12.22392 12494 ft 342 kts 285°
2026-05-04 13:53 45.52595 12.19128 13237 ft 347 kts 285°
2026-05-04 13:54 45.54052 12.12459 14663 ft 356 kts 285°
2026-05-04 13:54 45.54790 12.09080 15439 ft 358 kts 285°
2026-05-04 13:54 45.56278 12.02247 16911 ft 365 kts 285°
2026-05-04 13:55 45.57033 11.98771 17631 ft 368 kts 285°
2026-05-04 13:55 45.59784 11.92590 18938 ft 384 kts 321°
2026-05-04 13:55 45.62124 11.90711 19590 ft 388 kts 333°
2026-05-04 13:56 45.64592 11.89094 20198 ft 392 kts 334°
2026-05-04 13:56 45.67085 11.87468 20781 ft 396 kts 333°
2026-05-04 13:56 45.72104 11.84074 21942 ft 402 kts 333°
2026-05-04 13:57 45.74603 11.82349 22522 ft 405 kts 332°
2026-05-04 13:57 45.77182 11.80565 23106 ft 408 kts 332°
2026-05-04 13:58 45.84906 11.75214 24585 ft 417 kts 332°
2026-05-04 13:58 45.90174 11.71571 25505 ft 424 kts 332°
2026-05-04 13:58 45.92826 11.69703 25949 ft 425 kts 328°
2026-05-04 13:59 45.95137 11.67099 26315 ft 423 kts 310°
2026-05-04 13:59 45.97096 11.63939 26825 ft 424 kts 309°
2026-05-04 13:59 46.01035 11.57595 27797 ft 426 kts 309°
2026-05-04 14:00 46.03018 11.54429 28241 ft 428 kts 309°
2026-05-04 14:00 46.06393 11.49064 28754 ft 435 kts 309°
2026-05-04 14:00 46.08434 11.45829 29142 ft 438 kts 309°
2026-05-04 14:01 46.10483 11.42581 29562 ft 439 kts 309°
2026-05-04 14:01 46.12545 11.39312 29932 ft 441 kts 309°
2026-05-04 14:01 46.16669 11.32759 30547 ft 446 kts 309°
2026-05-04 14:02 46.18759 11.29438 30821 ft 449 kts 309°
2026-05-04 14:02 46.20860 11.26093 31122 ft 450 kts 309°
2026-05-04 14:02 46.22960 11.22741 31700 ft 449 kts 309°
2026-05-04 14:02 46.25049 11.19400 32107 ft 448 kts 309°
2026-05-04 14:03 46.27144 11.16049 32426 ft 449 kts 309°
2026-05-04 14:03 46.29234 11.12698 32799 ft 449 kts 309°
2026-05-04 14:03 46.31323 11.09346 33211 ft 448 kts 309°
2026-05-04 14:03 46.33405 11.06002 33622 ft 447 kts 309°
2026-05-04 14:04 46.37551 10.99320 34347 ft 445 kts 309°
2026-05-04 14:04 46.39612 10.96003 34722 ft 442 kts 309°
2026-05-04 14:04 46.41661 10.92697 34938 ft 440 kts 309°
2026-05-04 14:05 46.45362 10.86714 35511 ft 438 kts 309°
2026-05-04 14:05 46.47391 10.83423 35801 ft 438 kts 309°
2026-05-04 14:05 46.49415 10.80140 36132 ft 436 kts 309°
2026-05-04 14:06 46.51434 10.76865 36491 ft 433 kts 309°
2026-05-04 14:06 46.53434 10.73612 36828 ft 432 kts 309°
2026-05-04 14:06 46.55432 10.70357 37161 ft 430 kts 309°
2026-05-04 14:06 46.57423 10.67113 37462 ft 429 kts 309°
2026-05-04 14:07 46.59406 10.63880 37810 ft 428 kts 308°
2026-05-04 14:07 46.61377 10.60654 38084 ft 427 kts 309°
2026-05-04 14:07 46.63358 10.57401 38057 ft 431 kts 308°
2026-05-04 14:08 46.67333 10.50877 38078 ft 429 kts 308°
2026-05-04 14:08 46.71288 10.44383 38072 ft 429 kts 309°
2026-05-04 14:09 46.75832 10.33456 38092 ft 418 kts 290°
2026-05-04 14:10 46.79144 10.21705 38108 ft 417 kts 290°
2026-05-04 14:10 46.81357 10.13907 38112 ft 416 kts 290°
2026-05-04 14:11 46.83566 10.06164 38107 ft 416 kts 290°
2026-05-04 14:11 46.86900 9.94432 38104 ft 418 kts 290°
2026-05-04 14:12 46.89132 9.86552 38078 ft 420 kts 290°
2026-05-04 14:13 46.92488 9.74669 38060 ft 423 kts 289°
2026-05-04 14:13 46.94730 9.66703 38038 ft 423 kts 289°
2026-05-04 14:14 46.96966 9.58729 38040 ft 424 kts 289°
2026-05-04 14:14 47.00313 9.46741 38010 ft 423 kts 289°
2026-05-04 14:15 47.04733 9.30818 37997 ft 420 kts 289°
2026-05-04 14:16 47.08014 9.18902 37994 ft 420 kts 289°
2026-05-04 14:17 47.11308 9.06929 38006 ft 422 kts 288°
2026-05-04 14:18 47.14579 8.94940 37988 ft 422 kts 288°
2026-05-04 14:19 47.18733 8.78864 37984 ft 420 kts 287°
2026-05-04 14:19 47.20758 8.70800 37960 ft 420 kts 287°
2026-05-04 14:20 47.22798 8.62739 37970 ft 420 kts 287°
2026-05-04 14:20 47.24830 8.54678 37989 ft 421 kts 287°
2026-05-04 14:21 47.27887 8.42523 37958 ft 423 kts 287°
2026-05-04 14:21 47.29933 8.34387 37967 ft 424 kts 287°
2026-05-04 14:22 47.31973 8.26239 37976 ft 424 kts 287°
2026-05-04 14:22 47.34012 8.18072 37974 ft 425 kts 286°
2026-05-04 14:23 47.37066 8.05783 37969 ft 426 kts 287°
2026-05-04 14:24 47.39100 7.97567 37974 ft 426 kts 287°
2026-05-04 14:24 47.41124 7.89348 37973 ft 426 kts 286°
2026-05-04 14:25 47.43136 7.81136 37992 ft 425 kts 286°
2026-05-04 14:25 47.46144 7.68819 37993 ft 425 kts 286°
2026-05-04 14:26 47.47840 7.60504 37996 ft 421 kts 281°
2026-05-04 14:26 47.49192 7.52141 38019 ft 421 kts 280°
2026-05-04 14:27 47.50539 7.43719 38008 ft 421 kts 280°
2026-05-04 14:27 47.51915 7.35295 38003 ft 422 kts 280°
2026-05-04 14:28 47.53302 7.26854 38003 ft 422 kts 280°
2026-05-04 14:28 47.54685 7.18398 38006 ft 423 kts 280°
2026-05-04 14:29 47.57434 7.01494 38017 ft 422 kts 280°
2026-05-04 14:30 47.58774 6.93200 38016 ft 421 kts 280°
2026-05-04 14:31 47.60798 6.80577 38014 ft 421 kts 279°
2026-05-04 14:32 47.63481 6.63689 38030 ft 421 kts 279°
2026-05-04 14:32 47.64804 6.55282 38010 ft 422 kts 279°
2026-05-04 14:33 47.66135 6.46789 38023 ft 423 kts 279°
2026-05-04 14:33 47.67459 6.38292 38007 ft 423 kts 279°
2026-05-04 14:34 47.68781 6.29799 38042 ft 422 kts 280°
2026-05-04 14:34 47.70447 6.21399 38021 ft 426 kts 284°
2026-05-04 14:35 47.72286 6.13046 38011 ft 425 kts 284°
2026-05-04 14:35 47.74096 6.04707 38007 ft 423 kts 283°
2026-05-04 14:36 47.75849 5.96438 38012 ft 421 kts 283°
2026-05-04 14:36 47.77600 5.88087 38031 ft 420 kts 283°
2026-05-04 14:37 47.79321 5.79837 38012 ft 420 kts 283°
2026-05-04 14:37 47.81059 5.71474 38005 ft 421 kts 283°
2026-05-04 14:38 47.82770 5.63212 37997 ft 421 kts 283°
2026-05-04 14:38 47.84491 5.54861 37988 ft 422 kts 283°
2026-05-04 14:39 47.86210 5.46485 38013 ft 424 kts 283°
2026-05-04 14:39 47.87928 5.38079 37987 ft 425 kts 283°
2026-05-04 14:40 47.90865 5.25549 37988 ft 434 kts 295°
2026-05-04 14:40 47.94482 5.18249 37989 ft 443 kts 308°
2026-05-04 14:41 47.98680 5.11498 37979 ft 444 kts 309°
2026-05-04 14:42 48.07040 4.97868 37969 ft 445 kts 308°
2026-05-04 14:42 48.11190 4.90985 37965 ft 445 kts 307°
2026-05-04 14:43 48.15335 4.84080 37963 ft 447 kts 308°
2026-05-04 14:43 48.19498 4.77137 37949 ft 446 kts 308°
2026-05-04 14:44 48.23625 4.70240 37977 ft 445 kts 308°
2026-05-04 14:44 48.27755 4.63324 37963 ft 445 kts 307°
2026-05-04 14:45 48.31877 4.56392 37946 ft 444 kts 307°
2026-05-04 14:45 48.35291 4.50634 37958 ft 444 kts 307°
2026-05-04 14:46 48.39389 4.43700 37953 ft 443 kts 307°
2026-05-04 14:46 48.43476 4.36759 37958 ft 443 kts 307°
2026-05-04 14:47 48.47552 4.29819 37976 ft 442 kts 307°
2026-05-04 14:47 48.51633 4.22856 37960 ft 443 kts 307°
2026-05-04 14:48 48.55699 4.15870 37962 ft 444 kts 307°
2026-05-04 14:48 48.59795 4.08869 37966 ft 446 kts 307°
2026-05-04 14:49 48.63896 4.01821 37953 ft 447 kts 307°
2026-05-04 14:49 48.67993 3.94746 37969 ft 447 kts 307°
2026-05-04 14:50 48.72096 3.87645 37960 ft 448 kts 307°
2026-05-04 14:50 48.76141 3.80467 37956 ft 448 kts 306°
2026-05-04 14:51 48.80132 3.73222 37949 ft 447 kts 306°
2026-05-04 14:51 48.84114 3.65976 37951 ft 446 kts 306°
2026-05-04 14:52 48.88063 3.58796 37948 ft 446 kts 306°
2026-05-04 14:52 48.92055 3.51518 37948 ft 445 kts 306°
2026-05-04 14:53 48.95988 3.44324 37951 ft 445 kts 306°
2026-05-04 14:53 48.99935 3.37087 37945 ft 444 kts 306°
2026-05-04 14:54 49.03877 3.29839 37954 ft 444 kts 306°
2026-05-04 14:54 49.07807 3.22593 37949 ft 443 kts 306°
2026-05-04 14:55 49.11732 3.15340 37959 ft 443 kts 306°
2026-05-04 14:55 49.15656 3.08064 37967 ft 444 kts 306°
2026-05-04 14:56 49.19573 3.00780 37953 ft 444 kts 306°
2026-05-04 14:56 49.23492 2.93472 37964 ft 445 kts 306°
2026-05-04 14:57 49.27415 2.86131 37954 ft 446 kts 306°
2026-05-04 14:57 49.31333 2.78777 37950 ft 446 kts 306°
2026-05-04 14:58 49.35252 2.71417 37947 ft 445 kts 306°
2026-05-04 14:58 49.39208 2.64096 37959 ft 445 kts 307°
2026-05-04 14:59 49.43166 2.56788 37948 ft 445 kts 307°
2026-05-04 15:00 49.49083 2.45785 37939 ft 445 kts 306°
2026-05-04 15:00 49.53004 2.38433 37946 ft 445 kts 306°
2026-05-04 15:01 49.58886 2.27396 37944 ft 444 kts 307°
2026-05-04 15:01 49.62805 2.20020 37942 ft 444 kts 307°
2026-05-04 15:02 49.66716 2.12639 37942 ft 444 kts 307°
2026-05-04 15:02 49.70626 2.05244 37945 ft 444 kts 307°
2026-05-04 15:03 49.74533 1.97829 37945 ft 445 kts 307°
2026-05-04 15:03 49.78428 1.90408 37950 ft 445 kts 307°
2026-05-04 15:04 49.82324 1.82965 37955 ft 445 kts 307°
2026-05-04 15:04 49.86213 1.75515 37948 ft 445 kts 307°
2026-05-04 15:05 49.90100 1.68043 37959 ft 445 kts 307°
2026-05-04 15:05 49.93978 1.60562 37964 ft 446 kts 307°
2026-05-04 15:06 49.97870 1.53058 37970 ft 446 kts 308°
2026-05-04 15:07 50.04707 1.43146 37967 ft 450 kts 317°
2026-05-04 15:07 50.09478 1.36835 37982 ft 450 kts 317°
2026-05-04 15:08 50.13062 1.32008 37978 ft 451 kts 317°
2026-05-04 15:08 50.17787 1.25560 37925 ft 452 kts 317°
2026-05-04 15:08 50.20164 1.22296 37418 ft 456 kts 316°
2026-05-04 15:09 50.22539 1.19029 36877 ft 454 kts 316°
2026-05-04 15:09 50.24903 1.15777 36377 ft 452 kts 316°
2026-05-04 15:09 50.27266 1.12522 35806 ft 452 kts 316°
2026-05-04 15:10 50.31760 1.06321 34667 ft 454 kts 316°
2026-05-04 15:10 50.34132 1.03040 34021 ft 457 kts 315°
2026-05-04 15:10 50.38896 0.96436 32800 ft 455 kts 315°
2026-05-04 15:11 50.41258 0.93160 32323 ft 451 kts 315°
2026-05-04 15:11 50.43591 0.89921 31882 ft 446 kts 316°
2026-05-04 15:11 50.45911 0.86714 31391 ft 444 kts 316°
2026-05-04 15:11 50.48263 0.83578 30891 ft 441 kts 317°
2026-05-04 15:12 50.50599 0.80502 30443 ft 437 kts 317°
2026-05-04 15:12 50.52889 0.77469 30006 ft 434 kts 317°
2026-05-04 15:12 50.55181 0.74415 29501 ft 430 kts 317°
2026-05-04 15:12 50.57475 0.71362 29061 ft 424 kts 317°
2026-05-04 15:13 50.59684 0.68424 28603 ft 419 kts 317°
2026-05-04 15:13 50.61899 0.65473 28164 ft 415 kts 317°
2026-05-04 15:13 50.64094 0.62541 27728 ft 411 kts 317°
2026-05-04 15:13 50.66260 0.59642 27298 ft 407 kts 317°
2026-05-04 15:14 50.68407 0.56764 26855 ft 403 kts 317°
2026-05-04 15:14 50.70537 0.53905 26429 ft 400 kts 317°
2026-05-04 15:14 50.72647 0.51066 26000 ft 397 kts 317°
2026-05-04 15:14 50.74739 0.48250 25582 ft 394 kts 317°
2026-05-04 15:15 50.76818 0.45451 25177 ft 391 kts 316°
2026-05-04 15:15 50.78885 0.42668 24758 ft 389 kts 316°
2026-05-04 15:15 50.80938 0.39898 24343 ft 387 kts 316°
2026-05-04 15:16 50.85011 0.34393 23513 ft 383 kts 316°
2026-05-04 15:16 50.87033 0.31652 23024 ft 382 kts 316°
2026-05-04 15:16 50.91032 0.26218 22168 ft 376 kts 316°
2026-05-04 15:17 50.93004 0.23532 21747 ft 373 kts 317°
2026-05-04 15:17 50.96903 0.18213 20947 ft 367 kts 317°
2026-05-04 15:17 50.98829 0.15583 20553 ft 364 kts 317°
2026-05-04 15:18 51.00746 0.12964 20158 ft 362 kts 317°
2026-05-04 15:18 51.02674 0.10423 19847 ft 359 kts 321°
2026-05-04 15:18 51.04694 0.08106 19608 ft 357 kts 323°
2026-05-04 15:19 51.08866 0.03608 19124 ft 367 kts 324°
2026-05-04 15:19 51.10979 0.01327 18868 ft 366 kts 324°
2026-05-04 15:19 51.15149 -0.03239 18393 ft 362 kts 324°
2026-05-04 15:20 51.17214 -0.05523 18114 ft 360 kts 324°
2026-05-04 15:20 51.19266 -0.07799 17839 ft 358 kts 324°
2026-05-04 15:20 51.21304 -0.10067 17582 ft 356 kts 324°
2026-05-04 15:20 51.23332 -0.12328 17334 ft 355 kts 324°
2026-05-04 15:21 51.25349 -0.14580 17084 ft 353 kts 324°
2026-05-04 15:21 51.27360 -0.16827 16835 ft 352 kts 324°
2026-05-04 15:21 51.31359 -0.21303 16354 ft 350 kts 324°
2026-05-04 15:22 51.33344 -0.23530 16106 ft 349 kts 324°
2026-05-04 15:22 51.35328 -0.25757 15878 ft 348 kts 323°
2026-05-04 15:22 51.39273 -0.30189 15407 ft 345 kts 323°
2026-05-04 15:23 51.41257 -0.32322 15164 ft 344 kts 331°
2026-05-04 15:23 51.43546 -0.33394 14921 ft 346 kts 356°
2026-05-04 15:23 51.45922 -0.32990 14697 ft 345 kts 17°
2026-05-04 15:23 51.48136 -0.31493 14479 ft 344 kts 25°
2026-05-04 15:24 51.52419 -0.28133 13992 ft 342 kts 26°
2026-05-04 15:24 51.56670 -0.24800 13495 ft 339 kts 25°
2026-05-04 15:25 51.58792 -0.23156 13281 ft 338 kts 25°
2026-05-04 15:25 51.60909 -0.21522 13051 ft 336 kts 25°
2026-05-04 15:25 51.63012 -0.19902 12816 ft 335 kts 25°
2026-05-04 15:26 51.67191 -0.16681 12370 ft 332 kts 25°
2026-05-04 15:26 51.69278 -0.15071 12142 ft 332 kts 25°
2026-05-04 15:26 51.73429 -0.11863 11662 ft 326 kts 25°
2026-05-04 15:27 51.75449 -0.10307 11415 ft 316 kts 24°
2026-05-04 15:27 51.79385 -0.07531 11004 ft 305 kts 22°
2026-05-04 15:28 51.83212 -0.04882 10599 ft 297 kts 22°
2026-05-04 15:28 51.85124 -0.03547 10374 ft 294 kts 21°
2026-05-04 15:28 51.88797 -0.00970 9969 ft 285 kts 21°
2026-05-04 15:29 51.90609 0.00299 9758 ft 282 kts 21°
2026-05-04 15:30 51.97669 0.05277 8968 ft 269 kts 21°
2026-05-04 15:30 52.02942 0.06464 8453 ft 251 kts 360°
2026-05-04 15:31 52.05843 0.06603 8169 ft 252 kts 360°
2026-05-04 15:31 52.07598 0.06696 7995 ft 253 kts 359°
2026-05-04 15:32 52.12134 0.04059 7476 ft 241 kts 292°
2026-05-04 15:32 52.11835 -0.01056 7140 ft 235 kts 233°
2026-05-04 15:33 52.09004 -0.03427 6820 ft 238 kts 190°
2026-05-04 15:34 52.04063 -0.04622 6242 ft 237 kts 191°
2026-05-04 15:34 52.02449 -0.05018 6089 ft 233 kts 191°
2026-05-04 15:34 51.99262 -0.04527 5565 ft 244 kts 150°
2026-05-04 15:35 51.96557 -0.01508 5463 ft 234 kts 147°
2026-05-04 15:35 51.95180 0.00047 5042 ft 245 kts 147°
2026-05-04 15:35 51.93774 0.01635 4691 ft 248 kts 146°
2026-05-04 15:36 51.90572 0.02992 3947 ft 250 kts 196°
2026-05-04 15:36 51.88895 0.02206 3598 ft 253 kts 196°
2026-05-04 15:36 51.87183 0.01452 3224 ft 256 kts 195°
2026-05-04 15:37 51.85468 0.00673 3007 ft 252 kts 202°
2026-05-04 15:37 51.84010 -0.00751 3008 ft 240 kts 217°
2026-05-04 15:37 51.82664 -0.02307 2999 ft 237 kts 216°
2026-05-04 15:37 51.81320 -0.03843 3000 ft 236 kts 216°
2026-05-04 15:38 51.80006 -0.05337 2991 ft 224 kts 216°
2026-05-04 15:38 51.78764 -0.06757 3000 ft 215 kts 216°
2026-05-04 15:38 51.77545 -0.08156 3010 ft 216 kts 216°
2026-05-04 15:38 51.76200 -0.09216 2998 ft 218 kts 187°
2026-05-04 15:39 51.74762 -0.08937 2967 ft 207 kts 153°
2026-05-04 15:39 51.73746 -0.07441 2819 ft 195 kts 114°
2026-05-04 15:39 51.73408 -0.03183 2747 ft 191 kts 92°
2026-05-04 15:40 51.73326 -0.01051 2719 ft 190 kts 91°
2026-05-04 15:40 51.73565 0.00974 2662 ft 183 kts 52°
2026-05-04 15:40 51.74484 0.02358 2716 ft 184 kts 42°
2026-05-04 15:40 51.75415 0.03799 2691 ft 184 kts 43°
2026-05-04 15:41 51.76318 0.05195 2674 ft 181 kts 43°
2026-05-04 15:41 51.77229 0.06544 2691 ft 175 kts 41°
2026-05-04 15:41 51.78111 0.07824 2686 ft 167 kts 42°
2026-05-04 15:41 51.78935 0.09053 2678 ft 156 kts 41°
2026-05-04 15:42 51.79737 0.10259 2571 ft 156 kts 42°
2026-05-04 15:42 51.80526 0.11449 2396 ft 160 kts 43°
2026-05-04 15:42 51.81342 0.12683 2194 ft 159 kts 41°
2026-05-04 15:42 51.82135 0.13878 1968 ft 153 kts 41°
2026-05-04 15:43 51.82886 0.15013 1750 ft 142 kts 40°
2026-05-04 15:43 51.83591 0.16075 1570 ft 135 kts 41°
2026-05-04 15:43 51.84272 0.17102 1406 ft 134 kts 41°
2026-05-04 15:43 51.84970 0.18154 1161 ft 138 kts 41°
2026-05-04 15:44 51.85666 0.19226 991 ft 139 kts 43°
2026-05-04 15:44 51.86389 0.20311 751 ft 141 kts 41°
2026-05-04 15:44 51.87103 0.21382 555 ft 141 kts 44°
2026-05-04 15:44 51.87827 0.22471 357 ft 141 kts 39°
2026-05-04 15:45 51.88476 0.23448 339 ft 107 kts 43°
2026-05-04 15:45 51.88913 0.24098 346 ft 54 kts 43°
2026-05-04 15:45 51.89080 0.24459 352 ft 34 kts 67°
2026-05-04 15:45 51.89147 0.24717 354 ft 21 kts 67°
2026-05-04 15:46 51.89156 0.24916 354 ft 14 kts 97°
2026-05-04 15:46 51.89207 0.25030 351 ft 13 kts 52°
2026-05-04 15:46 51.89253 0.25149 357 ft 12 kts 54°
2026-05-04 15:46 51.89319 0.25262 358 ft 16 kts 44°
2026-05-04 15:47 51.89405 0.25390 354 ft 17 kts 45°
2026-05-04 15:47 51.89388 0.25542 354 ft 15 kts 124°
2026-05-04 15:47 51.89334 0.25674 356 ft 14 kts 132°
2026-05-04 15:47 51.89281 0.25766 351 ft 10 kts 132°
2026-05-04 15:48 51.89239 0.25837 351 ft 8 kts 131°
2026-05-04 15:48 51.89208 0.25891 356 ft 6 kts 130°
2026-05-04 15:48 51.89184 0.25947 351 ft 3 kts 91°
2026-05-04 15:49 51.89199 0.25980 359 ft 0 kts 42°
2026-05-04 15:49 51.89204 0.25988 357 ft 2 kts 43°
2026-05-04 15:49 51.89213 0.26003 355 ft 0 kts 44°